Tucson Davis Monthan, AZ

9:03 AM MST on December 10, 2019 (GMT -0700)
Davis-Monthan Air Force Base

Weather History for KDMA - October, 2019

Change the Weather History Date:

Thursday, October 3, 2019

  Actual Average Record
Temperature  
Mean Temperature 76 °F -  
Max Temperature 91 °F 87 °F 102 °F (1993)
Min Temperature 62 °F 63 °F 46 °F (1959)
Cooling Degree Days 12    
Growing Degree Days 26 (Base 50)    
Moisture  
Dew Point 53 °F    
Average Humidity 47    
Maximum Humidity 74    
Minimum Humidity 27    
Precipitation  
Precipitation 0.00 in - - ()
Sea Level Pressure  
Sea Level Pressure 29.85 in    
Wind  
Wind Speed 5 mph (South)    
Max Wind Speed 8 mph    
Max Gust Speed -    
Visibility 10 miles    
Events      
Averages and records for this station are not official NWS values.
T = Trace of Precipitation, MM = Missing Value Source: NWS Daily Summary

Daily Weather History Graph

Daily Weather History Graph

Search for Another Location

Airport or City:

Astronomy

Oct. 03, 2019 Rise Set
Actual Time 6:18 AM MST 6:05 PM MST
Civil Twilight 5:54 AM MST 6:30 PM MST
Nautical Twilight 5:25 AM MST 6:58 PM MST
Astronomical Twilight 4:57 AM MST 7:27 PM MST
Moon 11:36 AM MST (10/3) 10:05 PM MST (10/3)
Length of Visible Light 12h 36m
Length of Day
11h 47m
Waxing Crescent, 31% of the Moon is Illuminated
Oct 3
Waxing Crescent
Oct 5
First Quarter
Oct 13
Full
Oct 21
Last Quarter
Oct 27
New

Hourly Weather History & Observations

Time (MST) Temp. Heat Index Dew Point Humidity Pressure Visibility Wind Dir Wind Speed Gust Speed Precip Events Conditions
12:58 AM 66.0 °F - 54.7 °F 67% 29.86 in 10.0 mi ESE 5.8 mph - N/A   Clear
1:58 AM 65.3 °F - 53.6 °F 66% 29.87 in 10.0 mi SE 6.9 mph - N/A   Clear
2:58 AM 63.9 °F - 54.0 °F 70% 29.86 in 10.0 mi ESE 5.8 mph - N/A   Clear
3:58 AM 64.8 °F - 53.1 °F 66% 29.86 in 10.0 mi SE 3.5 mph - N/A   Clear
4:58 AM 62.2 °F - 53.8 °F 74% 29.87 in 10.0 mi South 3.5 mph - N/A   Clear
5:58 AM 62.2 °F - 52.7 °F 71% 29.88 in 10.0 mi ESE 5.8 mph - N/A   Clear
6:58 AM 63.3 °F - 52.9 °F 69% 29.89 in 10.0 mi ESE 5.8 mph - N/A   Clear
7:58 AM 70.7 °F - 53.2 °F 54% 29.90 in 10.0 mi SE 8.1 mph - N/A   Clear
8:58 AM 75.6 °F - 54.0 °F 47% 29.91 in 10.0 mi Calm Calm - N/A   Clear
9:58 AM 79.2 °F - 54.1 °F 42% 29.90 in 10.0 mi East 5.8 mph - N/A   Clear
10:58 AM 83.8 °F 82.6 °F 54.0 °F 36% 29.88 in 10.0 mi Calm Calm - N/A   Clear
11:58 AM 86.4 °F 84.4 °F 53.1 °F 32% 29.86 in 10.0 mi West 4.6 mph - N/A   Clear
12:58 PM 87.8 °F - 52.5 °F 30% 29.83 in 10.0 mi West 5.8 mph - N/A   Clear
1:58 PM 89.6 °F - 51.8 °F 27% 29.81 in 10.0 mi NW 3.5 mph - N/A   Clear
2:58 PM 91.4 °F 89.1 °F 53.6 °F 28% 29.79 in 10.0 mi SSE 6.9 mph - N/A   Partly Cloudy
3:59 PM 89.6 °F - 51.8 °F 27% 29.78 in 10.0 mi Calm Calm - N/A   Clear
4:58 PM 89.1 °F - 52.7 °F 29% 29.79 in 10.0 mi West 5.8 mph - N/A   Clear
5:58 PM 85.6 °F 83.8 °F 53.2 °F 33% 29.79 in 10.0 mi West 4.6 mph - N/A   Clear
6:58 PM 83.1 °F - 52.5 °F 35% 29.81 in 10.0 mi WNW 5.8 mph - N/A   Partly Cloudy
7:58 PM 80.6 °F - 49.6 °F 34% 29.83 in 10.0 mi NW 5.8 mph - N/A   Partly Cloudy
8:58 PM 77.7 °F - 51.4 °F 40% 29.83 in 10.0 mi SW 5.8 mph - N/A   Clear
9:58 PM 75.0 °F - 55.0 °F 50% 29.84 in 10.0 mi SSE 5.8 mph - N/A   Scattered Clouds
10:58 PM 75.4 °F - 57.0 °F 53% 29.84 in 10.0 mi South 6.9 mph - N/A   Mostly Cloudy
11:58 PM 75.9 °F - 57.0 °F 52% 29.85 in 10.0 mi South 3.5 mph - N/A   Scattered Clouds